GW4696 Weather Reports


time (UTC)temp
C
wind
direction
speed
KPH
gust
KPH
rain 1hr
cm
rain 24hr
cm
rain mn
cm
humidity
%
barometer
mb
20260507083031 22 311 1.6 8.0 0.00 0.00 0.00 51 1014.2
20260507081520 22 317 0.0 8.0 0.00 0.00 0.00 49 1014.2
20260507080022 22 320 0.0 6.4 0.00 0.00 0.00 48 1014.3
20260507074516 22 298 1.6 11.3 0.00 0.00 0.00 49 1014.3
20260507073014 22 310 4.8 12.9 0.00 0.00 0.00 49 1014.4
20260507071513 22 317 8.0 16.1 0.00 0.00 0.00 49 1014.4
20260507070059 23 317 6.4 17.7 0.00 0.00 0.00 48 1014.6
20260507064600 23 306 6.4 14.5 0.00 0.00 0.00 48 1014.7
20260507063105 23 325 6.4 14.5 0.00 0.00 0.00 48 1014.7
20260507061505 23 322 3.2 14.5 0.00 0.00 0.00 47 1014.7
20260507060010 23 316 6.4 12.9 0.00 0.00 0.00 46 1014.7
20260507054517 23 340 1.6 9.7 0.00 0.00 0.00 40 1014.7
20260507053121 24 36 0.0 3.2 0.00 0.00 0.00 38 1014.7
20260507051515 24 83 1.6 3.2 0.00 0.00 0.00 34 1014.7
20260507050026 25 83 0.0 3.2 0.00 0.00 0.00 32 1014.7
20260507044540 25 83 0.0 1.6 0.00 0.00 0.00 31 1014.6
20260507043047 25 83 0.0 3.2 0.00 0.00 0.00 31 1014.6
20260507041554 26 83 0.0 1.6 0.00 0.00 0.00 31 1014.6
20260507040055 26 83 0.0 4.8 0.00 0.00 0.00 30 1014.5
20260507034556 26 116 0.0 4.8 0.00 0.00 0.00 29 1014.2
20260507033053 26 123 0.0 4.8 0.00 0.00 0.00 29 1014.0
20260507031548 27 127 0.0 3.2 0.00 0.00 0.00 29 1013.6
20260507030049 27 127 1.6 6.4 0.00 0.00 0.00 29 1013.4
20260507024558 27 128 1.6 4.8 0.00 0.00 0.00 29 1013.3
20260507023049 28 131 3.2 8.0 0.00 0.00 0.00 28 1013.1
20260507021554 28 118 3.2 12.9 0.00 0.00 0.00 27 1012.9
20260507020115 29 109 4.8 14.5 0.00 0.00 0.00 26 1012.7
20260507014507 30 134 6.4 11.3 0.00 0.00 0.00 25 1012.6
20260507013037 30 126 4.8 17.7 0.00 0.00 0.00 25 1012.5
20260507011517 31 132 4.8 9.7 0.00 0.00 0.00 25 1012.5
20260507010023 31 107 6.4 12.9 0.00 0.00 0.00 24 1012.5
20260507004503 31 94 6.4 14.5 0.00 0.00 0.00 24 1012.5
20260507003000 32 98 8.0 16.1 0.00 0.00 0.00 23 1012.4
20260507001510 32 105 8.0 14.5 0.00 0.00 0.00 23 1012.3
20260507000008 32 115 4.8 11.3 0.00 0.00 0.00 22 1012.2
20260506234517 32 113 3.2 11.3 0.00 0.00 0.00 23 1012.3
20260506233027 32 97 4.8 12.9 0.00 0.00 0.00 23 1012.3
20260506231522 33 107 4.8 14.5 0.00 0.00 0.00 22 1012.4
20260506230015 33 186 3.2 11.3 0.00 0.00 0.00 21 1012.5
20260506224514 32 109 1.6 12.9 0.00 0.00 0.00 22 1012.7
20260506223009 32 128 4.8 14.5 0.00 0.00 0.00 23 1013.0
20260506221508 32 113 3.2 14.5 0.00 0.00 0.00 23 1013.2
20260506220008 32 132 6.4 14.5 0.00 0.00 0.00 23 1013.5
20260506214508 32 120 1.6 8.0 0.00 0.00 0.00 24 1013.8
20260506213113 31 115 4.8 14.5 0.00 0.00 0.00 23 1014.1
20260506211554 31 144 6.4 11.3 0.00 0.00 0.00 24 1014.3
20260506210041 31 115 1.6 11.3 0.00 0.00 0.00 25 1014.5
20260506204538 31 152 1.6 6.4 0.00 0.00 0.00 23 1014.6
20260506203037 30 194 0.0 8.0 0.00 0.00 0.00 23 1014.8
20260506201540 29 149 3.2 8.0 0.00 0.00 0.00 25 1015.1
20260506200033 30 169 3.2 9.7 0.00 0.00 0.00 25 1015.2
20260506194542 29 134 0.0 6.4 0.00 0.00 0.00 27 1015.6
20260506193050 28 157 3.2 11.3 0.00 0.00 0.00 27 1015.8
20260506191555 28 146 3.2 8.0 0.00 0.00 0.00 28 1015.9
20260506190004 28 128 0.0 4.8 0.00 0.00 0.00 28 1016.2
20260506184512 27 194 1.6 8.0 0.00 0.00 0.00 30 1016.4
20260506183027 26 317 0.0 3.2 0.00 0.00 0.00 32 1016.5
20260506181519 26 319 1.6 11.3 0.00 0.00 0.00 32 1016.7
20260506180029 24 343 0.0 3.2 0.00 0.00 0.00 34 1016.7
20260506174525 23 344 0.0 8.0 0.00 0.00 0.00 37 1016.7
20260506173020 23 344 1.6 9.7 0.00 0.00 0.00 39 1016.7
20260506171519 22 272 0.0 6.4 0.00 0.00 0.00 40 1016.8
20260506170019 22 205 0.0 6.4 0.00 0.00 0.00 41 1016.7
20260506164510 21 249 0.0 4.8 0.00 0.00 0.00 44 1016.8
20260506163018 21 258 1.6 3.2 0.00 0.00 0.00 47 1016.9
20260506161527 20 279 1.6 6.4 0.00 0.00 0.00 45 1016.9
20260506160030 20 289 0.0 3.2 0.00 0.00 0.00 48 1016.8
20260506154539 19 300 1.6 6.4 0.00 0.00 0.00 50 1016.6
20260506153041 19 303 1.6 4.8 0.00 0.00 0.00 50 1016.7
20260506151536 18 310 1.6 4.8 0.00 0.00 0.00 51 1016.7
20260506150022 18 312 1.6 4.8 0.00 0.00 0.00 54 1016.7
20260506144520 18 318 0.0 8.0 0.00 0.00 0.00 54 1016.6
20260506143015 17 278 1.6 9.7 0.00 0.00 0.00 56 1016.5
20260506141513 16 262 4.8 12.9 0.00 0.00 0.00 57 1016.3
20260506140015 16 319 3.2 16.1 0.00 0.00 0.00 57 1016.2
20260506134510 16 346 6.4 14.5 0.00 0.00 0.00 57 1016.0
20260506133008 16 334 4.8 16.1 0.00 0.00 0.00 58 1015.8
20260506131505 16 333 4.8 16.1 0.00 0.00 0.00 58 1015.7
20260506130104 16 319 6.4 20.9 0.00 0.00 0.00 58 1015.5
20260506124601 16 360 8.0 20.9 0.00 0.00 0.00 58 1015.5
20260506123004 16 304 9.7 20.9 0.00 0.00 0.00 58 1015.2
20260506121513 16 322 6.4 19.3 0.00 0.00 0.00 58 1015.2
20260506120022 16 341 8.0 19.3 0.00 0.00 0.00 58 1015.0
20260506114531 16 335 8.0 16.1 0.00 0.00 0.00 57 1015.0
20260506113037 16 315 6.4 19.3 0.00 0.00 0.00 56 1015.0
20260506111516 16 290 6.4 22.5 0.00 0.00 0.00 56 1014.9
20260506110016 16 314 8.0 25.7 0.00 0.00 0.00 56 1014.8
20260506104514 16 331 8.0 25.7 0.00 0.00 0.00 56 1014.8
20260506103014 16 331 9.7 25.7 0.00 0.00 0.00 56 1014.8
20260506101521 16 302 9.7 22.5 0.00 0.00 0.00 56 1014.7
20260506100028 16 344 4.8 16.1 0.00 0.00 0.00 56 1014.7
20260506094539 16 318 6.4 19.3 0.00 0.00 0.00 55 1014.5
20260506093048 17 322 8.0 24.1 0.00 0.00 0.00 56 1014.7
20260506091553 17 297 8.0 20.9 0.00 0.00 0.00 54 1014.8
20260506090051 17 336 8.0 19.3 0.00 0.00 0.00 53 1014.8
20260506084547 17 335 6.4 16.1 0.00 0.00 0.00 52 1014.8